Regional Weather Roundup
Issued by NWS

Home | Current Version | Previous Version | Text Only | Print | Product List | Glossary On
Versions: 1 2 3 4 5 6 7 8 9 10 11 12 13 14 15 16 17 18 19 20 21 22 23 24 25 26 27 28 29 30 31 32 33 34 35 36 37 38 39 40 41 42 43 44 45 46 47 48 49 50
000
ASMX46 KSGX 010711
RWRMX

MEXICAN WEATHER ROUNDUP
NATIONAL WEATHER SERVICE SAN DIEGO CA
1100 PM PST SAT FEB 28 2015

BAJA CALIFORNIA

CITY           SKY/WX    TMP DP  RH WIND       PRES   REMARKS
ENSENADA NW      N/A     56  32  39 NE9       29.93S
LA PAZ           N/A    N/A N/A N/A MISG        N/A
TIJUANA        MOCLDY    55  46  71 E6        29.96R

NORTHWESTERN MEXICO

CITY           SKY/WX    TMP DP  RH WIND       PRES   REMARKS
HERMOSILLO     CLEAR     63  57  82 N3        29.98

NORTHEASTERN MEXICO

CITY           SKY/WX    TMP DP  RH WIND       PRES   REMARKS
MONTERREY      CLOUDY    46  45  93 E3        30.16F FOG
REYNOSA        CLOUDY    45  43  93 NW9       30.17  FOG
TORREON        PTCLDY    59  39  47 CALM      30.07R
VICTORIA       CLOUDY    54  46  76 NW5       30.17

WESTERN MEXICO

CITY           SKY/WX    TMP DP  RH WIND       PRES   REMARKS
GUADALAJARA    CLEAR     55  32  41 S2        30.22
MAZATLAN       CLEAR     57  54  88 N8        30.00S
PTO. VALLARTA  PTCLDY    66  64  94 CALM      29.99S
ZACATECAS      CLEAR     48  18  29 S12       30.28S

CENTRAL MEXICO

CITY           SKY/WX    TMP DP  RH WIND       PRES   REMARKS
LEON           CLEAR     52  32  46 CALM      30.33
MEXICO CITY    CLEAR     63  39  42 NW6       30.34S
MORELIA        CLEAR     52  37  58 CALM      30.26
QUERETARO      CLEAR     54  39  58 CALM      30.32S
S. LUIS POTOSI CLEAR     50  41  71 CALM      30.28S
TOLUCA         CLEAR     45  32  61 E3        30.41F
VERACRUZ       CLOUDY    66  61  82 N3        30.09F

SOUTHERN MEXICO

CITY           SKY/WX    TMP DP  RH WIND       PRES   REMARKS
ACAPULCO       CLEAR     73  66  78 NE2       29.96F
TAPACHULA      CLEAR     79  75  89 CALM      29.95F

YUCATAN PENINSULA

CITY           SKY/WX    TMP DP  RH WIND       PRES   REMARKS
CANCUN         CLEAR     77  72  83 NE6       30.14F
CHETUMAL       CLEAR     79  73  83 CALM      30.09S
COZUMEL        CLEAR     68  68 100 CALM      30.13F
MERIDA         CLEAR     73  70  88 E8        30.12S

$$



USA.gov is the U.S. government's official web portal to all federal, state and local government web resources and services.